This demonstration page uses our WeatherBlox Daily Observations layout. Learn more.

Left ArrowRight Arrow

Hourly Observations for August 16, 2022

Temp ( °F °C ) Dew Point ( °F °C ) Humidity (%) Winds ( mph kmh ) Pressure ( in mb ) Visibility ( mi km ) Precip ( " mm )
12:53 am 00:53 Cloudy 80 26.7 43 6.1 27 27 NNE 5 7 29.78 1008 10 16 0.00 0.00
1:53 am 01:53 Cloudy 78 25.6 42 5.6 28 28 N 5 7 29.77 1008 10 16 0.00 0.00
2:53 am 02:53 Cloudy 79 26.1 41 5 26 26 NNW 6 9 29.76 1008 10 16 0.00 0.00
3:53 am 03:53 Cloudy 76 24.4 43 6.1 31 31 NW 5 7 29.76 1008 10 16 0.00 0.00
4:53 am 04:53 Clear 74 23.3 44 6.7 34 34 NNE 3 6 29.76 1008 10 16 0.00 0.00
5:53 am 05:53 Clear 71 21.7 47 8.3 42 42 Calm 29.75 1008 7 11 0.00 0.00
6:53 am 06:53 Sunny with Smoke 70 21.1 44 6.7 39 39 Calm 29.78 1008 5 8 0.00 0.00
7:53 am 07:53 Sunny with Smoke 75 23.9 41 5 29 29 Calm 29.79 1009 10 16 0.00 0.00
8:53 am 08:53 Sunny with Smoke 84 28.9 40 4.4 21 21 Calm 29.78 1009 10 16 0.00 0.00
9:53 am 09:53 Sunny with Smoke 93 33.9 46 7.8 20 20 VRB 5 7 29.77 1008 10 16 0.00 0.00
10:53 am 10:53 Sunny with Smoke 97 36.1 47 8.3 18 18 VRB 6 9 29.76 1008 10 16 0.00 0.00
11:53 am 11:53 Sunny with Smoke 100 37.8 45 7.2 15 15 E 3 6 29.75 1007 10 16 0.00 0.00
12:53 pm 12:53 Sunny with Smoke 103 39.4 43 6.1 13 13 undefined N/A 29.73 1007 10 16 0.00 0.00
1:53 pm 13:53 Sunny with Smoke 107 41.7 39 3.9 10 10 NW 5 7 29.72 1006 10 16 0.00 0.00
2:53 pm 14:53 Sunny with Smoke 108 42.2 33 0.6 8 8 S 8 13 29.70 1006 10 16 0.00 0.00
3:53 pm 15:53 Sunny with Smoke 107 41.7 30 -1.1 7 7 S 5 7 29.68 1005 10 16 0.00 0.00
4:53 pm 16:53 Sunny with Smoke 109 42.8 29 -1.7 6 6 VRB 3 6 29.67 1005 10 16 0.00 0.00
5:53 pm 17:53 Sunny with Smoke 108 42.2 24 -4.4 5 5 VRB 3 6 29.65 1004 10 16 0.00 0.00
6:53 pm 18:53 Sunny with Smoke 107 41.7 21 -6.1 5 5 ESE 8 13 29.65 1004 10 16 0.00 0.00
7:53 pm 19:53 Sunny with Smoke 102 38.9 25 -3.9 7 7 SSE 6 9 29.66 1004 10 16 0.00 0.00
8:53 pm 20:53 Clear with Smoke 98 36.7 36 2.2 12 12 SSW 7 11 29.67 1005 10 16 0.00 0.00
9:53 pm 21:53 Clear with Smoke 91 32.8 36 2.2 14 14 Calm 29.70 1006 10 16 0.00 0.00
11:53 pm 23:53 Clear with Smoke 84 28.9 40 4.4 21 21 Calm 29.74 1007 10 16 0.00 0.00

Powered by AerisWeather